User: anonymous   Login
Location: Mt. Cuba Astronomical Observatory
(39.8100°N, 75.6300°W)
Time: 02:41:38
(UTC-05:00)
Language:

Cosmos 2058 - Orbit

View from above orbital plane
View from above orbital plane
View from above satellite
View from above satellite

Ground track
Ground track

The orbit data is extracted from the following two-line orbital elements,

1 20465U 90010A   17059.16741100  .00000487  00000-0  39489-4 0  9995
2 20465  82.4925 352.6716 0014364 305.9629  54.0260 14.97437955469023
Epoch (UTC): 28 February 2017 04:01:04
Eccentricity: 0.0014364
inclination: 82.4925°
perigee height: 565 km
apogee height: 585 km
right ascension of ascending node: 352.6716°
argument of perigee: 305.9629°
revolutions per day: 14.97437955
mean anomaly at epoch: 54.0260°
orbit number at epoch: 46902

The dashed part of the orbit path shows where the satellite is in the earth's shadow,  

DLR